Voltar ao catálogo

STARLINK-35234

AtivoComunicaçõesSSO
NORAD 65601·PAYLOAD·🇺🇸 United States

Lançado Sep 13, 2025 de Cape Canaveral Space Force Station

Loading…

Próximas Passagens (próximas 24 horas)

TLE

AtualizadoSource: CelesTrak SupGP

Época: Sep 14, 2026, 22:33 UTC

1 65601C 25207K   26257.94006944  .02266100  00000+0  95808-1 0  2576
2 65601  97.2841 320.6167 0001533  81.1592 158.0738 15.22155215    16

Acompanhe STARLINK-35234 em tempo real com AllMySat

Download on the App Store